Location: Broletto
(44.6000°N, 10.5833°E)
Time: 01:27:05
(UTC+00:00)

NOSS 3-1 (C) - Pass Details

Date: 18 April 2021
Orbit: 732 x 1476 km, 63.4° (Epoch: 18 April)

Event Time Altitude Azimuth Distance (km) Brightness Sun altitude
Rises 22:18:34 0° 321° (NW) 3,952 7.6 -32.7°
Reaches altitude 10° 22:21:05 10° 321° (NW) 3,089 6.8 -32.8°
Maximum altitude 22:28:40 81° 236° (SW) 1,337 4.0 -33.2°
Enters shadow 22:28:43 81° 231° (SW) 1,338 4.0 -33.2°
